SL-3 R/B (13068 NORAD) Tracking and Keplerian Element Data

This shows tracking and keplerian element data for the satellite.

Feedback or suggestion? Click here.




ElementValue
Catalog13068
NameSL-3 R/B
Epoch Orbit28505
Epoch Day12.93178574
Epoch Year2024
RAAN356.1227
Inclination81.1796
Eccentricity0.0025678
Argument of Perigee297.735
Mean Anonmoly62.1272
Mean Motion15.12131629
Decay Rate5.162E-05
L11 13068U 82013B 24012.93178574 .00005162 00000+0 29599-3 0 9995
L22 13068 81.1796 356.1227 0025678 297.7350 62.1272 15.12131629285050



Live tracking and technical data element details for SL-3 R/B (NORAD 13068). SL-3 R/B can be tracked NOW for your location showing map with azimuth and elevation plus other details from your city location.







IsCatalogInMostPopularTable: catalog: 13068, numindb: 280
Update: records affected: 1



GetName: 13068 SL-3 R/B

Hit Count: updated at: Sun, 14 Apr 2024 23:39:33 GMT